This is the latest recevied weather packets stored in our database for station/object KN6DHD. If no packets are shown the sender has not sent any weather packets the latest 10 day(s).
| Time | Temp. | Humidity | Pressure | Rain* | Wind** | Luminosity | Snow |
|---|---|---|---|---|---|---|---|
| 1777659297 | 20.56° C | 70% | 1014.8 hPa | 0 mm | - | 78 W/m² | - |
| 1777658994 | 20.56° C | 69% | 1014.9 hPa | 0 mm | - | 78 W/m² | - |
| 1777658691 | 20.56° C | 68% | 1014.8 hPa | 0 mm | - | 75 W/m² | - |
| 1777658386 | 20° C | 71% | 1014.8 hPa | 0 mm | - | 75 W/m² | - |
| 1777658084 | 20° C | 71% | 1014.9 hPa | 0 mm | - | 75 W/m² | - |
| 1777657780 | 20° C | 70% | 1014.7 hPa | 0 mm | - | 76 W/m² | - |
| 1777657478 | 20° C | 72% | 1015 hPa | 0 mm | - | 78 W/m² | - |
| 1777657176 | 19.44° C | 72% | 1014.8 hPa | 0 mm | - | 81 W/m² | - |
| 1777656873 | 19.44° C | 72% | 1014.7 hPa | 0 mm | - | 81 W/m² | - |
| 1777656568 | 18.89° C | 72% | 1014.7 hPa | 0 mm | - | 80 W/m² | - |
| 1777656265 | 18.89° C | 74% | 1014.8 hPa | 0 mm | - | 87 W/m² | - |
| 1777655960 | 18.89° C | 74% | 1014.8 hPa | 0 mm | - | 75 W/m² | - |
| 1777655656 | 18.89° C | 75% | 1014.8 hPa | 0 mm | - | 72 W/m² | - |
| 1777655353 | 18.33° C | 75% | 1014.9 hPa | 0 mm | - | 69 W/m² | - |
| 1777655050 | 17.78° C | 77% | 1014.8 hPa | 0 mm | - | 67 W/m² | - |
| 1777654748 | 17.78° C | 77% | 1014.9 hPa | 0 mm | - | 65 W/m² | - |
| 1777654446 | 17.78° C | 78% | 1014.9 hPa | 0 mm | - | 62 W/m² | - |
| 1777654143 | 17.22° C | 78% | 1015 hPa | 0 mm | - | 62 W/m² | - |
| 1777653841 | 17.22° C | 79% | 1014.9 hPa | 0 mm | - | 61 W/m² | - |
| 1777653537 | 16.67° C | 79% | 1014.8 hPa | 0 mm | - | 58 W/m² | - |
| 1777653233 | 16.67° C | 80% | 1015 hPa | 0 mm | - | 58 W/m² | - |
| 1777652930 | 16.67° C | 80% | 1014.8 hPa | 0 mm | - | 55 W/m² | - |
| 1777652627 | 16.11° C | 81% | 1015 hPa | 0 mm | - | 52 W/m² | - |
| 1777652323 | 16.11° C | 81% | 1015.1 hPa | 0 mm | - | 54 W/m² | - |
| 1777652020 | 16.11° C | 82% | 1015 hPa | 0 mm | - | 50 W/m² | - |
* Rain latest hour (hover to see other rain measurements)
** Current wind speed in m/s (hover to see current wind gust speed)